This demonstration page uses our WeatherBlox Daily Observations layout. Learn more.

Left ArrowRight Arrow

Hourly Observations for September 23, 2020

Temp ( °F °C ) Dew Point ( °F °C ) Humidity (%) Winds ( mph kmh ) Pressure ( in mb ) Visibility ( mi km ) Precip ( " mm )
12:52 am 00:52 Clear 64 17.8 59 15 84 84 SE 10 17 30.01 1016 10 16 0.00 0.00
1:52 am 01:52 Clear 62 16.7 58 14.4 86 86 SSE 7 11 30.01 1016 10 16 0.00 0.00
2:52 am 02:52 Clear 60 15.6 58 14.4 93 93 SE 8 13 30.01 1016 10 16 0.00 0.00
3:52 am 03:52 Mostly Clear 60 15.6 58 14.4 93 93 SSE 7 11 30.01 1016 10 16 0.00 0.00
4:52 am 04:52 Partly Cloudy 60 15.6 59 15 96 96 SE 7 11 30.00 1016 10 16 0.00 0.00
5:52 am 05:52 Partly Cloudy 60 15.6 58 14.4 93 93 SSE 7 11 30.00 1016 10 16 0.00 0.00
6:52 am 06:52 Partly Cloudy 60 15.6 59 15 96 96 SSE 7 11 30.00 1016 10 16 0.00 0.00
7:52 am 07:52 Partly Cloudy 60 15.6 59 15 96 96 SSE 7 11 30.01 1016 10 16 0.00 0.00
8:52 am 08:52 Partly Cloudy 63 17.2 62 16.7 97 97 SSE 9 15 30.01 1016 10 16 0.00 0.00
9:44 am 09:44 Mostly Cloudy 66 18.9 62 16.7 87 87 S 8 13 30.01 1016 7 11 0.00 0.00
9:52 am 09:52 Mostly Cloudy 67 19.4 63 17.2 87 87 S 8 13 30.01 1016 7 11 0.00 0.00
10:52 am 10:52 Cloudy 69 20.6 63 17.2 81 81 S 9 15 30.01 1016 10 16 0.00 0.00
11:28 am 11:28 Mostly Cloudy 72 22.2 64 17.8 76 76 S 9 15 29.98 1015 10 16 0.00 0.00
11:52 am 11:52 Mostly Cloudy 73 22.8 63 17.2 71 71 S 12 19 30.00 1016 10 16 0.00 0.00
12:52 pm 12:52 Mostly Cloudy 74 23.3 62 16.7 67 67 S 13 20 29.98 1015 10 16 0.00 0.00
1:52 pm 13:52 Partly Cloudy 78 25.6 60 15.6 54 54 S 10 17 29.95 1014 10 16 0.00 0.00
2:52 pm 14:52 Partly Cloudy 79 26.1 61 16.1 54 54 SSE 16 26 29.92 1013 10 16 0.00 0.00
3:52 pm 15:52 Partly Cloudy 79 26.1 61 16.1 54 54 SSE 16 26 29.91 1013 10 16 0.00 0.00
4:52 pm 16:52 Partly Cloudy 79 26.1 61 16.1 54 54 S 14 22 29.88 1012 10 16 0.00 0.00
5:52 pm 17:52 Mostly Sunny 78 25.6 61 16.1 56 56 SSE 14 22 29.88 1012 10 16 0.00 0.00
6:52 pm 18:52 Mostly Sunny 76 24.4 61 16.1 60 60 SSE 13 20 29.88 1012 10 16 0.00 0.00
7:52 pm 19:52 Mostly Clear 73 22.8 61 16.1 66 66 S 13 20 29.88 1012 10 16 0.00 0.00
8:52 pm 20:52 Mostly Clear 70 21.1 61 16.1 73 73 SSE 8 13 29.90 1013 10 16 0.00 0.00
9:52 pm 21:52 Mostly Clear 70 21.1 60 15.6 71 71 S 10 17 29.91 1013 10 16 0.00 0.00
10:52 pm 22:52 Mostly Clear 67 19.4 60 15.6 79 79 SSE 9 15 29.90 1013 10 16 0.00 0.00
11:52 pm 23:52 Partly Cloudy 65 18.3 60 15.6 84 84 SSE 9 15 29.88 1012 10 16 0.00 0.00

Powered by AerisWeather